Wind_Speed
36 35 34 34 34 36 37 37 36 33 33 35 37 39 40 40 41 43 44 45 46 47 48 49 50 51 52 53 54 55 57 58 60 61 62 63 64 66 67 68 69 69 70 71
34 33 32 32 34 33 33 32 34 35 36 36 40 41 43 45 46 47 48 49 50 52 53 53 53 55 56 58 60 62 64 66 67 67 68 68 69 70 70 71 71 72 72 73
30 31 32 37 31 33 33 34 35 37 36 39 40 42 44 47 49 50 52 54 55 57 59 61 62 64 66 67 68 69 70 72 73 74 75 75 76 76 77 77 76 75 74 73
32 32 39 35 35 34 35 35 36 38 40 41 44 47 50 51 53 55 58 59 61 63 65 66 68 69 69 70 71 72 74 75 77 78 79 80 80 79 78 77 77 76 75 75
37 36 39 39 37 37 37 38 41 43 45 48 51 53 55 56 58 59 61 63 64 66 69 71 72 73 73 74 75 76 77 77 78 78 77 76 75 75 76 74 72 71 69 68
36 39 43 43 42 42 45 47 47 50 52 54 55 56 57 59 62 64 66 68 69 71 73 74 75 75 76 76 76 75 74 72 71 72 73 73 73 73 71 69 67 66 65 66
41 44 46 47 48 50 53 51 54 55 56 58 60 62 63 65 67 69 70 71 72 73 74 75 75 74 73 71 70 69 69 69 69 68 67 66 66 66 67 68 67 66 63 64
47 49 51 51 54 56 58 60 60 61 63 64 65 67 67 68 68 70 70 71 72 73 72 71 70 68 67 66 66 66 64 63 62 62 61 61 62 62 63 63 64 65 64 63
51 52 55 56 59 61 63 65 67 68 69 69 68 69 69 69 69 70 71 69 68 67 67 67 66 64 63 63 62 61 60 60 59 59 58 57 58 58 58 57 57 59 57 54
55 56 58 61 64 67 69 69 69 69 70 70 70 70 69 70 70 69 67 66 65 65 64 64 63 63 62 60 60 59 58 58 58 57 57 56 55 53 51 50 50 49 48 49
62 64 66 66 67 67 68 69 69 69 68 68 69 68 68 67 66 65 65 64 63 63 62 62 62 62 61 61 60 59 58 58 59 58 57 53 51 49 47 46 45 44 44 44
65 66 66 66 66 67 67 66 66 66 66 66 66 65 63 62 62 62 61 61 61 61 61 62 63 64 64 62 61 60 60 59 58 57 55 51 47 46 43 43 43 40 38 38
64 66 66 67 66 66 64 63 64 64 64 64 62 60 59 59 59 59 59 59 60 61 63 65 65 65 64 63 62 61 61 61 59 56 52 48 46 44 42 42 39 37 38 40
63 63 63 62 62 62 62 63 62 61 58 57 57 56 56 56 57 58 59 60 62 64 65 66 66 65 66 65 64 64 63 60 59 57 52 47 46 45 43 43 41 41 42 44
58 59 60 60 60 60 59 57 55 55 55 56 56 56 57 58 60 61 62 63 64 66 68 69 69 69 69 69 69 68 66 64 60 56 53 49 47 46 45 45 43 41 44 43
57 56 54 53 52 52 52 53 54 55 56 57 58 60 62 63 64 65 66 66 68 69 71 71 71 72 72 73 73 71 69 66 63 57 54 51 49 47 47 49 46 45 45 46
49 49 50 51 51 51 51 53 55 57 59 61 63 64 66 67 67 68 69 69 70 71 71 72 74 75 76 76 74 69 64 59 55 52 51 51 50 49 48 47 51 46 47 49
48 49 49 49 50 52 54 56 58 60 63 66 68 69 70 70 70 70 70 72 73 73 74 75 75 72 67 64 58 52 48 47 47 48 51 51 51 50 50 50 49 50 49 50
50 51 52 54 56 57 59 62 65 66 68 68 69 69 70 71 71 71 71 71 71 69 68 64 60 57 54 51 50 47 47 48 49 49 50 49 50 52 52 54 52 50 50 50
56 57 58 59 61 62 64 65 66 67 68 68 67 68 68 69 68 65 62 59 59 55 54 52 50 49 48 46 45 44 44 45 46 46 46 47 48 50 53 54 57 58 55 54
59 60 60 61 62 63 63 62 62 63 65 64 63 61 59 57 55 52 50 48 50 46 45 44 44 44 43 42 41 41 41 41 42 43 45 46 47 48 50 52 55 58 61 63
58 58 58 58 58 59 60 60 59 57 56 54 52 51 50 49 48 47 45 44 44 43 41 40 40 40 41 40 40 41 41 41 41 41 43 44 46 48 50 53 55 57 59 61
57 57 57 57 57 56 55 52 50 49 48 49 49 48 47 46 45 44 43 43 41 42 40 39 40 39 36 34 35 36 38 38 39 40 41 42 44 46 49 52 54 57 59 61
55 55 54 52 49 46 45 45 44 45 44 42 41 41 40 39 39 39 37 37 38 37 35 35 35 36 32 32 32 32 33 33 33 34 36 38 40 42 44 47 49 52 54 55
48 46 43 42 41 39 39 38 37 38 35 35 35 34 32 31 31 32 30 29 29 29 29 30 30 31 28 28 28 29 29 29 29 29 30 33 35 37 39 42 44 47 50 53
40 38 37 36 34 33 32 31 32 34 31 29 29 30 28 27 26 26 27 27 26 25 25 26 26 25 26 26 25 25 25 25 26 26 28 30 32 33 36 38 40 43 45 48
31 31 32 31 29 27 27 27 26 28 29 26 25 29 28 26 23 23 23 24 24 24 24 24 24 24 24 25 24 23 23 23 23 24 25 26 28 31 33 35 37 39 41 42
Wind_Direction
255 256 258 258 259 260 263 264 265 268 266 265 266 268 271 271 271 271 271 271 271 271 271 271 271 271 272 271 271 271 270 270 270 270 270 270 270 270 269 269 269 268 268 268
256 259 261 262 261 261 264 265 265 265 264 266 267 269 270 271 273 274 274 275 275 275 276 275 275 275 275 275 275 275 274 274 273 274 274 274 273 272 272 271 270 269 269 268
260 261 262 261 268 270 268 269 269 269 270 271 271 272 274 274 275 277 278 278 278 278 278 278 278 278 278 278 278 278 277 277 277 277 277 277 276 276 276 275 274 272 270 268
263 262 262 269 268 267 269 269 272 273 273 273 275 276 276 277 278 278 279 279 279 279 278 278 278 278 279 279 278 279 279 279 279 278 278 277 276 276 275 274 274 272 271 269
266 266 268 268 271 271 272 271 272 272 274 274 275 276 277 278 279 279 279 279 279 280 280 281 281 282 282 282 282 281 280 279 279 278 277 277 276 275 275 274 273 272 270 266
268 271 273 273 273 274 276 276 281 280 278 278 279 280 280 281 280 282 282 283 283 283 283 283 283 283 282 281 281 281 280 279 279 278 278 277 276 275 274 272 271 270 269 267
267 270 271 272 275 278 278 282 280 281 281 282 283 283 284 284 284 284 285 285 284 284 284 284 283 283 283 282 281 280 280 280 280 279 277 276 274 273 272 271 269 268 266 265
272 273 270 272 274 278 279 281 282 283 284 285 285 285 285 285 284 284 284 284 284 284 283 283 282 282 281 281 281 281 281 279 278 276 276 276 275 274 273 270 268 265 263 262
275 275 277 278 279 280 282 283 284 284 284 284 284 283 283 284 283 284 284 284 283 282 282 281 281 281 281 281 282 282 281 280 280 281 281 280 279 277 274 270 266 264 262 260
279 280 280 281 282 282 283 283 283 283 283 284 284 284 283 283 284 284 283 282 281 280 279 279 279 280 281 282 283 283 282 284 285 286 285 284 283 280 274 269 265 262 259 257
280 281 281 282 282 282 282 282 282 283 283 282 282 283 284 285 284 283 282 280 278 277 278 279 280 281 282 283 283 283 285 286 287 288 288 287 285 279 272 266 260 259 257 256
279 280 281 281 281 281 281 281 281 281 281 282 284 285 284 283 282 280 278 277 276 277 278 279 281 282 283 284 284 285 286 286 287 288 287 287 283 278 270 261 253 252 250 249
279 279 280 280 280 281 281 281 281 283 285 285 285 284 282 281 279 277 277 277 278 278 278 279 280 281 281 283 284 285 285 285 285 284 282 282 279 277 269 257 244 244 244 244
279 279 279 279 281 281 281 283 284 285 284 283 282 281 280 279 278 277 277 277 278 278 279 279 280 280 281 281 281 281 281 281 280 280 278 274 271 271 263 249 240 244 244 244
278 279 280 281 282 282 282 283 283 282 281 281 280 280 279 278 277 277 278 279 279 279 279 278 278 279 280 280 281 281 280 279 277 273 270 267 263 265 261 247 243 246 247 247
282 282 282 282 282 282 282 281 281 280 280 280 280 280 279 280 280 280 280 280 279 278 278 278 279 279 279 280 280 279 278 277 275 270 264 261 258 258 255 251 245 242 244 243
281 282 282 282 283 282 280 279 279 279 279 279 279 280 281 282 282 282 281 280 279 278 279 279 279 279 280 279 279 278 277 273 269 265 260 256 254 250 250 249 244 242 240 241
283 283 282 281 280 279 279 279 279 279 279 280 281 282 282 282 282 282 281 280 279 279 278 279 280 281 281 280 278 275 271 267 263 258 254 252 249 247 246 244 243 242 241 240
284 283 282 282 281 281 281 281 280 281 282 283 283 283 282 282 282 282 283 283 283 283 283 283 282 282 280 279 277 274 271 267 263 260 256 251 248 246 244 244 241 240 241 240
284 284 284 283 282 282 282 283 284 284 284 285 285 286 288 287 287 286 286 284 283 283 283 283 282 281 280 278 276 274 270 266 263 261 258 255 252 249 246 244 243 242 240 241
286 285 285 284 284 285 286 287 287 288 288 289 289 288 288 288 287 287 285 285 284 284 283 283 282 280 279 277 276 273 270 267 263 261 258 256 253 251 249 246 245 244 245 244
288 288 289 291 293 293 292 291 292 292 291 292 291 291 290 289 288 287 286 284 284 283 283 282 280 278 277 275 272 270 268 266 264 262 259 256 254 252 250 248 247 247 247 247
295 297 297 295 294 294 295 296 295 294 294 293 292 292 291 289 287 285 284 284 281 282 282 280 278 277 277 276 273 271 269 268 266 263 261 259 257 255 254 252 252 251 251 250
295 294 295 296 297 297 298 298 298 296 295 295 295 293 292 291 290 287 285 283 283 281 279 277 277 277 276 275 274 272 271 270 268 266 264 262 261 259 257 255 254 253 252 252
296 296 297 297 299 300 301 301 299 297 297 296 296 296 297 297 294 294 293 289 285 284 281 278 276 275 274 272 272 272 271 272 272 271 269 266 264 262 260 258 257 256 254 253
298 298 299 300 301 306 305 302 297 298 300 300 301 301 303 302 302 298 296 295 292 287 283 281 278 276 275 273 271 269 270 272 275 275 275 275 272 270 266 264 261 259 257 256
303 304 305 307 308 306 304 302 303 301 302 303 303 302 303 304 304 300 297 294 292 289 286 283 280 276 272 271 270 270 272 274 276 279 281 281 279 276 272 268 266 265 263 262
Height
5633 5634 5635 5636 5638 5638 5638 5640 5640 5644 5643 5642 5642 5641 5642 5642 5642 5642 5642 5642 5641 5641 5640 5639 5639 5638 5637 5637 5636 5635 5633 5632 5630 5630 5629 5629 5628 5628 5627 5626 5626 5626 5626 5627
5621 5623 5624 5625 5625 5628 5630 5630 5631 5632 5632 5632 5630 5630 5630 5629 5629 5629 5628 5628 5627 5626 5625 5624 5623 5622 5621 5619 5618 5617 5615 5613 5612 5611 5610 5609 5609 5608 5607 5607 5606 5606 5606 5607
5612 5614 5615 5615 5619 5619 5620 5620 5620 5620 5622 5619 5620 5619 5618 5617 5616 5615 5614 5613 5612 5610 5608 5606 5605 5604 5602 5600 5598 5597 5594 5592 5591 5590 5589 5587 5586 5585 5584 5583 5583 5584 5585 5585
5603 5605 5603 5608 5608 5609 5609 5609 5609 5608 5608 5608 5607 5605 5604 5603 5602 5600 5599 5597 5595 5593 5590 5587 5585 5585 5583 5580 5578 5575 5572 5570 5568 5566 5565 5563 5561 5559 5558 5557 5557 5558 5559 5560
5592 5594 5595 5595 5596 5596 5596 5598 5596 5595 5595 5593 5591 5590 5589 5587 5585 5583 5581 5579 5577 5574 5570 5567 5565 5564 5562 5558 5556 5552 5549 5547 5544 5542 5540 5538 5536 5534 5533 5532 5532 5533 5533 5535
5583 5581 5581 5583 5584 5583 5581 5583 5582 5579 5577 5576 5575 5573 5572 5570 5568 5565 5563 5560 5556 5553 5549 5546 5544 5542 5540 5536 5532 5528 5526 5523 5520 5517 5515 5514 5512 5510 5509 5508 5508 5508 5510 5512
5569 5568 5569 5568 5567 5566 5565 5569 5562 5561 5560 5558 5556 5555 5552 5550 5547 5544 5541 5538 5534 5530 5526 5523 5520 5518 5516 5513 5509 5507 5504 5501 5499 5496 5493 5492 5490 5488 5487 5485 5485 5486 5487 5489
5556 5555 5554 5554 5553 5552 5548 5546 5544 5542 5540 5537 5535 5533 5531 5528 5525 5522 5519 5516 5512 5508 5504 5501 5499 5497 5494 5491 5488 5485 5483 5480 5477 5475 5473 5472 5469 5467 5464 5463 5462 5463 5464 5467
5543 5540 5538 5538 5535 5532 5530 5529 5526 5524 5522 5518 5515 5513 5510 5507 5503 5500 5496 5493 5490 5487 5483 5480 5477 5476 5473 5470 5467 5465 5462 5460 5457 5455 5452 5450 5447 5445 5443 5442 5441 5442 5444 5447
5525 5525 5520 5519 5517 5515 5512 5509 5506 5503 5500 5496 5493 5490 5488 5485 5481 5478 5475 5472 5469 5466 5462 5459 5456 5454 5453 5451 5447 5445 5443 5440 5437 5434 5432 5429 5426 5424 5422 5422 5423 5424 5427 5430
5505 5502 5500 5499 5496 5494 5491 5488 5484 5481 5478 5476 5472 5469 5467 5464 5461 5458 5455 5452 5449 5445 5442 5439 5436 5434 5432 5431 5428 5426 5423 5421 5418 5415 5412 5410 5407 5405 5404 5405 5406 5408 5412 5415
5485 5483 5480 5479 5475 5472 5470 5467 5464 5462 5459 5455 5452 5449 5446 5443 5441 5437 5434 5431 5429 5426 5423 5420 5417 5414 5411 5409 5407 5405 5402 5401 5399 5397 5393 5392 5390 5389 5388 5389 5391 5395 5398 5401
5465 5463 5461 5458 5456 5452 5450 5447 5444 5441 5438 5435 5432 5429 5426 5423 5420 5417 5414 5412 5409 5406 5403 5401 5398 5395 5392 5389 5387 5384 5382 5380 5378 5378 5377 5376 5375 5374 5373 5374 5377 5380 5384 5388
5445 5443 5441 5439 5437 5434 5430 5427 5424 5421 5418 5416 5412 5409 5407 5404 5401 5399 5396 5393 5390 5387 5384 5381 5378 5375 5372 5369 5367 5364 5362 5361 5360 5358 5360 5360 5359 5359 5360 5361 5363 5367 5371 5374
5426 5424 5422 5420 5418 5415 5412 5408 5405 5402 5400 5397 5394 5391 5388 5385 5382 5379 5376 5373 5370 5366 5362 5359 5356 5353 5351 5348 5345 5343 5341 5340 5341 5341 5340 5342 5343 5343 5344 5347 5349 5353 5356 5359
5408 5406 5404 5401 5399 5396 5394 5391 5388 5385 5381 5378 5375 5372 5368 5364 5361 5358 5355 5351 5347 5344 5340 5337 5334 5330 5327 5324 5321 5319 5318 5317 5318 5319 5321 5322 5325 5327 5328 5331 5334 5337 5341 5345
5392 5390 5387 5384 5382 5379 5376 5373 5370 5367 5363 5359 5356 5352 5348 5343 5340 5336 5332 5328 5324 5320 5317 5313 5309 5305 5303 5299 5296 5295 5293 5293 5295 5297 5299 5302 5305 5308 5311 5314 5318 5322 5325 5330
5376 5373 5370 5367 5364 5361 5358 5355 5351 5347 5342 5338 5333 5329 5325 5321 5316 5311 5307 5303 5299 5295 5292 5288 5283 5281 5277 5272 5272 5272 5271 5271 5273 5276 5278 5282 5285 5289 5293 5297 5301 5305 5309 5313
5360 5356 5353 5350 5346 5342 5338 5334 5329 5324 5320 5316 5311 5306 5301 5296 5292 5287 5283 5277 5272 5270 5263 5262 5259 5255 5253 5253 5251 5253 5252 5253 5255 5257 5259 5262 5266 5270 5274 5279 5284 5288 5292 5296
5341 5338 5334 5330 5325 5320 5316 5312 5307 5302 5297 5292 5287 5281 5276 5271 5266 5262 5258 5253 5247 5248 5243 5241 5240 5237 5235 5235 5235 5235 5235 5236 5237 5239 5242 5245 5249 5253 5257 5261 5265 5270 5274 5279
5321 5316 5312 5307 5303 5299 5294 5289 5284 5278 5272 5268 5264 5258 5254 5248 5244 5241 5237 5234 5228 5229 5226 5225 5223 5221 5219 5220 5220 5219 5220 5221 5221 5223 5226 5229 5232 5236 5239 5242 5246 5250 5255 5260
5299 5295 5290 5286 5281 5276 5271 5266 5262 5256 5251 5246 5241 5237 5234 5229 5225 5222 5219 5218 5214 5212 5211 5210 5208 5206 5205 5206 5205 5205 5205 5205 5207 5209 5211 5213 5215 5218 5221 5224 5227 5231 5235 5239
5279 5274 5270 5265 5260 5255 5251 5246 5242 5237 5232 5228 5224 5219 5216 5212 5208 5205 5203 5199 5199 5197 5196 5195 5193 5192 5193 5193 5191 5190 5190 5191 5192 5194 5195 5196 5198 5200 5202 5205 5208 5211 5214 5218
5261 5256 5251 5247 5242 5239 5234 5230 5225 5220 5216 5212 5207 5204 5200 5197 5192 5190 5189 5186 5183 5182 5182 5180 5179 5178 5180 5179 5178 5178 5177 5178 5179 5180 5180 5181 5182 5184 5185 5187 5190 5192 5194 5197
5244 5240 5236 5232 5229 5225 5221 5216 5211 5206 5203 5200 5195 5191 5188 5185 5182 5177 5176 5175 5172 5171 5169 5168 5168 5166 5168 5167 5167 5167 5167 5167 5167 5167 5167 5167 5168 5169 5169 5171 5172 5173 5176 5177
5232 5228 5224 5220 5217 5213 5208 5204 5200 5195 5193 5190 5186 5182 5179 5176 5173 5170 5167 5164 5163 5162 5160 5159 5158 5158 5157 5157 5157 5157 5157 5157 5157 5157 5156 5155 5155 5155 5155 5155 5155 5156 5157 5158
5221 5218 5213 5209 5207 5203 5199 5195 5192 5187 5183 5181 5178 5172 5170 5167 5165 5162 5159 5156 5155 5153 5151 5150 5149 5149 5148 5148 5148 5148 5148 5148 5148 5147 5146 5145 5144 5142 5141 5140 5140 5140 5140 5141